Flag for China Weather past 2 weeks in Lanzhou, Gansu, China

Now
37 °F

Fog.


Feels Like: 35 °F
Forecast: 44 / 60 °F
Wind: 3 mph from Northwest

Location: Lanzhou / Zhongchuan

Current Time: Apr 2, 2015 at 9:08:21 AM

Latest Report: Apr 2, 2015 at 8:00 AM


Visibility: 3 mi

Pressure: 29.68 "Hg

Humidity: 93%

Dew point: 36 °F

Location of LanzhouLocation

Historic Weather in Lanzhou — Graph

°F

Lanzhou temperature yesterday

Maximum temperature yesterday: 57 °F (at 12:00 AM)
Minimum temperature yesterday: 39 °F (at 11:00 PM)
Average temperature yesterday: 51 °F

Past Weeks' High & Low Weather Summary

 TemperatureHumidityPressure
High75 °F (Mar 29, 4:00 PM)100% (Apr 1, 11:00 PM)30.42 "Hg (Apr 1, 11:00 PM)
Low25 °F (Mar 21, 7:00 AM)12% (Mar 29, 3:00 PM)29.50 "Hg (Apr 1, 5:00 AM)
Average46 °F45%30.06 "Hg
* Reported Mar 18 8:00 AM — Apr 2 8:00 AM, Lanzhou, Weather by CustomWeather, © 2015

Note: Actual official high and low records may vary slightly from our data, if they occured in-between our weather recording intervals... More about our weather records

Advertising

Lanzhou weather history for previous 24 hours

 ConditionsComfort  
Time TempWeatherWind HumidityBarometerVisibility
8:00 AM
Thu, Apr 2
37 °FFog.3 mph93%29.68 "Hg3 mi
7:00 AM32 °FIce fog.3 mph100%29.65 "Hg2 mi
6:00 AM34 °FFog.1 mph100%29.65 "Hg2 mi
5:00 AM36 °FFog.1 mph93%29.65 "Hg2 mi
4:00 AM36 °FFog.8 mph100%29.68 "Hg2 mi
3:00 AM36 °FFog.6 mph100%29.71 "Hg1 mi
2:00 AM37 °FFog.6 mph100%29.74 "Hg1 mi
1:00 AM37 °FFog.6 mph100%29.74 "Hg1 mi
12:00 AM39 °FFog.3 mph93%29.77 "Hg2 mi
11:00 PM
Wed, Apr 1
39 °FFog.1 mph100%29.77 "Hg2 mi
10:00 PM45 °FFog.No wind87%29.77 "Hg2 mi
9:00 PM46 °FFog.1 mph87%29.77 "Hg2 mi
8:00 PM48 °FFog.3 mph82%29.74 "Hg3 mi
7:00 PM50 °FFog.3 mph82%29.71 "Hg3 mi
6:00 PM52 °FPassing clouds.8 mph77%29.68 "HgN/A
5:00 PM54 °FPassing clouds.6 mph72%29.65 "HgN/A
4:00 PM52 °FMore clouds than sun.3 mph72%29.65 "HgN/A
3:00 PM50 °FLight rain. More clouds than sun.6 mph76%29.65 "HgN/A
2:00 PM50 °FRain. Overcast.15 mph76%29.68 "Hg3 mi
1:00 PM46 °FLight rain. Fog.6 mph87%29.68 "Hg2 mi
12:00 PM48 °FSandstorm.15 mph71%29.65 "Hg2 mi
11:00 AM50 °FFog.10 mph82%29.62 "Hg3 mi
10:00 AM54 °FFog.3 mph88%29.59 "Hg3 mi
9:00 AM54 °FLight rain. Fog.1 mph88%29.59 "Hg3 mi
Weather by CustomWeather, © 2015

See weather overviewHow to use our weather pages